TimePST,TemperatureF,Dew PointF,Humidity,Sea Level PressureIn,VisibilityMPH,Wind Direction,Wind SpeedMPH,Gust SpeedMPH,PrecipitationIn,Events,Conditions,WindDirDegrees,DateUTC
12:55 AM,46.9,42.1,83,29.47,5.0,South,20.7,51.8,0.09,Rain,Rain,190,2012-12-20 08:55:00
1:28 AM,44.6,42.8,93,29.50,6.0,West,8.1,-,0.11,Rain,Light Rain,260,2012-12-20 09:28:00
1:55 AM,43.0,41.0,93,29.52,5.0,SW,4.6,-,0.15,Rain,Light Rain,220,2012-12-20 09:55:00
2:13 AM,42.8,39.2,87,29.54,5.0,SSW,4.6,-,0.03,Rain,Rain,200,2012-12-20 10:13:00
2:41 AM,42.8,41.0,93,29.56,6.0,SSW,6.9,-,0.09,Rain,Rain,210,2012-12-20 10:41:00
2:55 AM,43.0,39.9,89,29.56,7.0,South,9.2,-,0.12,Rain,Light Rain,190,2012-12-20 10:55:00
3:16 AM,42.8,39.2,87,29.54,6.0,South,9.2,-,0.02,Rain,Rain,170,2012-12-20 11:16:00
3:55 AM,42.1,39.0,89,29.54,8.0,SSE,8.1,-,0.05,Rain,Light Rain,150,2012-12-20 11:55:00
4:55 AM,41.0,37.0,86,29.54,10.0,SE,6.9,-,0.02,Rain,Light Rain,140,2012-12-20 12:55:00
5:55 AM,39.9,37.9,93,29.55,8.0,SE,4.6,-,0.03,Rain,Light Rain,130,2012-12-20 13:55:00
6:09 AM,39.2,37.4,93,29.56,7.0,SSE,3.5,-,0.02,Rain,Rain,150,2012-12-20 14:09:00
6:55 AM,39.9,37.9,93,29.57,10.0,SSE,3.5,-,0.06,Rain,Light Rain,150,2012-12-20 14:55:00
7:55 AM,39.9,37.0,89,29.57,10.0,SSE,5.8,-,0.03,Rain,Light Rain,150,2012-12-20 15:55:00
8:05 AM,39.2,37.4,93,29.56,10.0,SE,4.6,-,0.00,Rain,Light Rain,140,2012-12-20 16:05:00
8:55 AM,39.9,37.0,89,29.58,10.0,SSE,4.6,-,0.00,,Overcast,150,2012-12-20 16:55:00
9:55 AM,41.0,37.9,89,29.60,10.0,Calm,Calm,-,0.04,,Overcast,0,2012-12-20 17:55:00
10:55 AM,42.1,37.0,82,29.64,9.0,Variable,5.8,-,0.02,Rain,Light Rain,0,2012-12-20 18:55:00
11:04 AM,42.8,37.4,81,29.64,5.0,South,8.1,-,0.01,Rain,Light Rain,190,2012-12-20 19:04:00
11:41 AM,41.0,37.4,87,29.65,10.0,South,12.7,20.7,0.05,Rain,Light Rain,180,2012-12-20 19:41:00
11:53 AM,41.0,37.4,87,29.65,0.5,South,10.4,20.7,0.05,Fog,Fog,170,2012-12-20 19:53:00
11:55 AM,41.0,37.0,86,29.66,0.2,South,10.4,19.6,0.05,Fog,Fog,170,2012-12-20 19:55:00
12:05 PM,41.0,37.4,87,29.66,-9999.0,South,15.0,19.6,N/A,,Partly Cloudy,180,2012-12-20 20:05:00
12:55 PM,45.0,39.0,80,29.68,10.0,South,10.4,21.9,0.00,,Clear,180,2012-12-20 20:55:00
1:55 PM,45.0,39.0,80,29.70,10.0,South,6.9,16.1,N/A,,Scattered Clouds,170,2012-12-20 21:55:00
2:55 PM,43.0,37.0,80,29.72,10.0,SSE,8.1,-,N/A,,Clear,150,2012-12-20 22:55:00
3:32 PM,42.8,37.4,81,29.73,2.5,SSE,9.2,-,0.02,Rain,Rain,150,2012-12-20 23:32:00
3:42 PM,41.0,35.6,81,29.73,3.0,South,6.9,-,0.05,Rain,Rain,190,2012-12-20 23:42:00
3:55 PM,42.1,37.0,82,29.73,8.0,ESE,9.2,-,0.06,Rain,Light Rain,120,2012-12-20 23:55:00
4:55 PM,41.0,37.0,86,29.75,10.0,ESE,8.1,-,0.00,,Mostly Cloudy,120,2012-12-21 00:55:00
5:55 PM,37.9,35.1,89,29.76,10.0,East,5.8,-,N/A,,Partly Cloudy,100,2012-12-21 01:55:00
6:55 PM,37.9,34.0,86,29.77,10.0,ESE,6.9,-,N/A,,Clear,110,2012-12-21 02:55:00
7:55 PM,37.9,34.0,86,29.76,10.0,SE,9.2,-,N/A,,Clear,130,2012-12-21 03:55:00
8:55 PM,37.9,34.0,86,29.75,10.0,ESE,9.2,-,N/A,,Clear,120,2012-12-21 04:55:00
9:55 PM,39.0,33.1,79,29.75,10.0,SE,8.1,-,N/A,,Clear,140,2012-12-21 05:55:00
10:55 PM,39.0,34.0,82,29.75,10.0,SE,9.2,-,N/A,,Clear,140,2012-12-21 06:55:00
11:55 PM,39.0,33.1,79,29.74,10.0,SE,9.2,-,N/A,,Clear,140,2012-12-21 07:55:00